Cloud_Cover
100 100 100 70 45 5 100 100 11 69 100 97 27 47 5 0 0 0 0 4 100 100 100 100 100 100 100 100 100 100 99 100 69
100 100 100 97 64 84 98 31 5 75 100 96 100 96 94 5 4 23 38 2 100 100 100 100 100 100 100 100 100 100 100 100 100
100 100 100 100 100 100 100 58 8 5 91 5 100 100 98 5 94 44 12 41 100 100 100 100 100 100 100 100 100 100 100 100 9
99 100 100 100 100 84 51 72 3 5 32 33 82 92 51 14 97 100 36 95 89 100 100 100 100 100 100 100 100 100 100 100 97
100 100 100 100 100 100 96 47 35 55 16 34 86 17 5 5 10 73 100 100 100 100 100 100 60 100 100 100 100 100 100 100 75
100 78 100 100 100 100 100 70 83 100 98 64 41 22 3 5 5 31 83 90 100 97 100 100 100 100 100 100 100 100 100 88 100
100 98 100 100 100 100 100 97 100 79 7 90 64 43 22 5 5 41 98 64 78 100 66 100 100 100 100 100 100 100 100 89 74
100 100 100 100 100 100 100 100 100 100 62 5 10 5 9 72 5 5 99 100 94 100 100 100 100 100 95 100 100 100 100 77 47
88 79 97 100 100 100 100 100 100 100 100 72 5 5 5 5 25 16 32 98 100 100 100 100 71 100 100 100 100 100 100 85 100
27 54 90 42 100 100 100 100 100 100 100 100 54 18 3 5 6 67 16 5 89 100 100 100 100 100 100 100 100 100 100 100 100
74 72 10 26 84 100 100 100 100 100 100 100 100 81 90 5 4 6 5 6 59 57 100 100 100 100 100 100 100 100 100 100 100
98 100 91 91 48 87 100 66 100 100 100 100 100 100 100 99 71 75 5 5 35 5 89 100 100 100 100 100 100 100 100 100 100
13 100 83 62 100 74 91 92 100 100 100 100 100 100 100 100 100 100 100 18 60 6 30 99 100 100 100 100 100 100 100 100 100
14 37 68 58 45 100 96 99 80 100 100 100 100 100 96 100 100 100 100 100 45 11 42 100 100 100 100 100 100 100 100 100 100
0 0 0 15 34 92 60 84 100 97 100 100 100 100 100 100 100 100 100 100 100 61 17 72 87 100 100 100 100 100 100 100 100
5 2 0 35 75 35 55 27 100 100 94 100 100 100 100 100 100 100 100 100 100 100 100 97 100 100 100 100 100 100 100 100 100
5 5 5 4 14 25 60 83 56 61 92 100 100 100 100 100 100 100 100 100 100 100 100 85 95 98 100 100 100 100 100 100 100
5 5 5 5 18 17 45 76 100 99 100 100 100 100 100 100 100 100 100 100 100 100 100 97 42 12 39 100 100 100 100 100 100
5 5 5 5 5 5 28 9 83 98 100 100 100 100 100 100 100 100 100 100 100 100 100 97 98 88 39 50 100 100 100 100 100
5 5 5 5 5 5 5 5 39 100 100 100 100 100 100 100 100 100 100 100 100 100 100 100 100 79 98 100 100 100 100 100 100